Weather History for Eagle, CO

Change the Weather History Date:

Thursday, June 13, 2013

  Actual Average Record
Temperature  
Mean Temperature 68 °F -  
Max Temperature 86 °F 78 °F 91 °F (1956)
Min Temperature 50 °F 39 °F 29 °F (1966)
Cooling Degree Days 3    
Growing Degree Days 18 (Base 50)    
Moisture  
Dew Point 29 °F    
Average Humidity 28    
Maximum Humidity 47    
Minimum Humidity 12    
Precipitation  
Precipitation 0.00 in - - ()
Sea Level Pressure  
Sea Level Pressure 30.12 in    
Wind  
Wind Speed 4 mph (SE)    
Max Wind Speed 28 mph    
Max Gust Speed 39 mph    
Visibility 10 miles    
Events      
Averages and records for this station are not official NWS values.
T = Trace of Precipitation, MM = Missing Value Source: NWS Daily Summary

Daily Weather History Graph

Daily Weather History Graph

Search for Another Location

Airport:

Trip Planner

Search our weather history database for the weather conditions in past years. The results will help you decide how hot, cold, wet, or windy it might be!

Date:

Astronomy

Jun. 13, 2013 Rise Set
Actual Time 5:39 AM MDT 8:36 PM MDT
Civil Twilight 5:06 AM MDT 9:08 PM MDT
Nautical Twilight 4:25 AM MDT 9:50 PM MDT
Astronomical Twilight 3:38 AM MDT 10:37 PM MDT
Moon 10:18 AM MDT (6/13) 11:45 PM MDT (6/13)
Length of Visible Light 16h 02m
Length of Day
14h 57m
Waxing Crescent, 22% of the Moon is Illuminated
Jun 13
Waxing Crescent
Jun 16
First Quarter
Jun 23
Full
Jun 29
Last Quarter
Jul 8
New

Hourly Weather History & Observations

Time (MDT) Temp. Dew Point Humidity Pressure Visibility Wind Dir Wind Speed Gust Speed Precip Events Conditions
12:15 AM 62.6 °F 28.4 °F 27% 30.18 in 10.0 mi ESE 3.5 mph - N/A   Clear
12:35 AM 60.8 °F 28.4 °F 29% 30.18 in 10.0 mi Calm Calm - N/A   Clear
12:55 AM 59.0 °F 28.4 °F 31% 30.19 in 10.0 mi Calm Calm - N/A   Clear
1:15 AM 57.2 °F 26.6 °F 31% 30.18 in 10.0 mi Calm Calm - N/A   Clear
1:35 AM 57.2 °F 28.4 °F 33% 30.18 in 10.0 mi Calm Calm - N/A   Clear
1:55 AM 57.2 °F 26.6 °F 31% 30.18 in 10.0 mi SE 3.5 mph - N/A   Clear
2:35 AM 55.4 °F 26.6 °F 33% 30.18 in 10.0 mi SE 3.5 mph - N/A   Clear
2:55 AM 55.4 °F 26.6 °F 33% 30.18 in 10.0 mi Calm Calm - N/A   Clear
3:15 AM 53.6 °F 26.6 °F 35% 30.18 in 10.0 mi Calm Calm - N/A   Clear
3:35 AM 53.6 °F 28.4 °F 38% 30.18 in 10.0 mi SE 3.5 mph - N/A   Clear
3:55 AM 53.6 °F 26.6 °F 35% 30.18 in 10.0 mi East 4.6 mph - N/A   Clear
4:35 AM 53.6 °F 28.4 °F 38% 30.19 in 10.0 mi Calm Calm - N/A   Clear
4:55 AM 51.8 °F 30.2 °F 44% 30.19 in 10.0 mi Calm Calm - N/A   Clear
5:15 AM 51.8 °F 28.4 °F 41% 30.20 in 10.0 mi Calm Calm - N/A   Clear
5:35 AM 50.0 °F 30.2 °F 47% 30.20 in 10.0 mi Calm Calm - N/A   Clear
5:55 AM 51.8 °F 28.4 °F 41% 30.21 in 10.0 mi Calm Calm - N/A   Clear
6:15 AM 50.0 °F 30.2 °F 47% 30.21 in 10.0 mi Calm Calm - N/A   Clear
6:35 AM 50.0 °F 30.2 °F 47% 30.21 in 10.0 mi East 5.8 mph - N/A   Clear
6:50 AM 51.8 °F 30.2 °F 44% 30.21 in 10.0 mi Variable 5.8 mph - N/A   Mostly Cloudy
7:50 AM 53.6 °F 30.2 °F 41% 30.21 in 10.0 mi Calm Calm - N/A   Mostly Cloudy
8:50 AM 57.2 °F 30.2 °F 36% 30.21 in 10.0 mi Calm Calm - N/A   Mostly Cloudy
9:55 AM 64.4 °F 30.2 °F 28% 30.20 in 10.0 mi Calm Calm - N/A   Mostly Cloudy
10:50 AM 71.6 °F 28.4 °F 20% 30.18 in 10.0 mi Calm Calm - N/A   Mostly Cloudy
11:50 AM 75.2 °F 32.0 °F 21% 30.15 in 10.0 mi ENE 5.8 mph - N/A   Scattered Clouds
12:50 PM 86.0 °F 26.6 °F 12% 30.11 in 10.0 mi SW 21.9 mph 39.1 mph N/A   Scattered Clouds
1:50 PM 86.0 °F 28.4 °F 12% 30.09 in 10.0 mi SSW 27.6 mph 36.8 mph N/A   Scattered Clouds
2:50 PM 84.2 °F 28.4 °F 13% 30.09 in 10.0 mi SW 26.5 mph 34.5 mph N/A   Mostly Cloudy
3:50 PM 84.2 °F 28.4 °F 13% 30.08 in 10.0 mi WSW 21.9 mph 29.9 mph N/A   Mostly Cloudy
4:50 PM 82.4 °F 26.6 °F 13% 30.05 in 10.0 mi SW 13.8 mph 28.8 mph N/A   Scattered Clouds
5:50 PM 82.4 °F 26.6 °F 13% 30.04 in 10.0 mi SW 16.1 mph 21.9 mph N/A   Mostly Cloudy
6:50 PM 80.6 °F 28.4 °F 15% 30.01 in 10.0 mi SW 8.1 mph - N/A   Mostly Cloudy
7:15 PM 80.6 °F 28.4 °F 15% 30.01 in 10.0 mi WSW 5.8 mph - N/A   Clear
7:35 PM 78.8 °F 30.2 °F 17% 30.01 in 10.0 mi West 3.5 mph - N/A   Clear
8:15 PM 78.8 °F 30.2 °F 17% 30.01 in 10.0 mi Calm Calm - N/A   Clear
8:35 PM 77.0 °F 32.0 °F 19% 30.00 in 10.0 mi Calm Calm - N/A   Clear
8:55 PM 73.4 °F 33.8 °F 23% 30.01 in 10.0 mi Calm Calm - N/A   Clear
9:15 PM 71.6 °F 33.8 °F 25% 30.02 in 10.0 mi ESE 4.6 mph - N/A   Clear
9:35 PM 69.8 °F 32.0 °F 25% 30.02 in 10.0 mi East 6.9 mph - N/A   Clear
9:55 PM 68.0 °F 32.0 °F 26% 30.03 in 10.0 mi East 8.1 mph - N/A   Clear
10:15 PM 68.0 °F 30.2 °F 24% 30.03 in 10.0 mi East 6.9 mph - N/A   Clear
10:35 PM 66.2 °F 30.2 °F 26% 30.04 in 10.0 mi NE 8.1 mph - N/A   Clear
10:55 PM 66.2 °F 30.2 °F 26% 30.04 in 10.0 mi NE 5.8 mph - N/A   Clear
11:15 PM 69.8 °F 30.2 °F 23% 30.04 in 10.0 mi NE 8.1 mph - N/A   Clear
11:35 PM 66.2 °F 30.2 °F 26% 30.04 in 10.0 mi NNE 6.9 mph - N/A   Clear
11:55 PM 69.8 °F 30.2 °F 23% 30.04 in 10.0 mi ENE 3.5 mph - N/A   Clear